timestamp,surface_pressure_avg,surface_temp_avg,battery_voltage,lat,long
2022-07-30 00:09:01+00:00,348.733,18.2,11.93,47.84626,-54.09684
2022-07-30 00:19:00+00:00,343.7629,18.2,11.93,47.84626,-54.09684
2022-07-30 00:29:00+00:00,344.49300000000005,18.2,11.93,47.84626,-54.09684
2022-07-30 00:39:00+00:00,348.583,18.2,11.93,47.84626,-54.09684
2022-07-30 00:49:00+00:00,349.8279,18.21,11.93,47.84626,-54.09684
2022-07-30 00:59:00+00:00,346.833,18.23,11.93,47.84626,-54.09684
2022-07-30 01:09:00+00:00,345.6046,18.24,11.93,47.84626,-54.09684
2022-07-30 01:19:00+00:00,341.1963,18.25,11.93,47.84626,-54.09684
2022-07-30 01:29:00+00:00,338.3979,18.31,11.93,47.84626,-54.09684
2022-07-30 01:39:00+00:00,341.1146,18.5,11.93,47.84626,-54.09684
2022-07-30 01:49:00+00:00,338.1263,18.58,11.93,47.84626,-54.09684
2022-07-30 01:59:00+00:00,333.3846,18.6,11.93,47.84626,-54.09684
2022-07-30 02:09:00+00:00,327.2879,18.61,11.93,47.84626,-54.09684
2022-07-30 02:19:00+00:00,324.1596,18.66,11.93,47.84626,-54.09684
2022-07-30 02:29:00+00:00,324.8747,18.68,11.93,47.84626,-54.09684
2022-07-30 02:39:00+00:00,320.068,18.7,11.93,47.84626,-54.09684
2022-07-30 02:49:00+00:00,316.4313,18.7,11.93,47.84626,-54.09684
2022-07-30 02:59:00+00:00,313.2263,18.7,11.93,47.84626,-54.09684
2022-07-30 03:09:00+00:00,305.7764,18.7,11.93,47.84626,-54.09684
2022-07-30 03:19:00+00:00,294.8614,18.7,11.93,47.84626,-54.09684
2022-07-30 03:29:00+00:00,286.3264,18.7,11.93,47.84626,-54.09684
2022-07-30 03:39:00+00:00,280.7531,18.7,11.93,47.84626,-54.09684
2022-07-30 03:49:00+00:00,274.9315,18.72,11.93,47.84626,-54.09684
2022-07-30 03:59:00+00:00,266.6831,18.78,11.93,47.84626,-54.09684
2022-07-30 04:09:00+00:00,256.9514,18.8,11.93,47.84626,-54.09684
2022-07-30 04:19:00+00:00,251.2547,18.8,11.86,47.84626,-54.09684
2022-07-30 04:29:00+00:00,243.8647,18.8,11.86,47.84626,-54.09684
2022-07-30 04:39:00+00:00,235.3981,18.8,11.86,47.84626,-54.09684
2022-07-30 04:49:00+00:00,227.5581,18.8,11.86,47.84626,-54.09684
2022-07-30 04:59:00+00:00,225.7831,18.8,11.86,47.84626,-54.09684
2022-07-30 05:09:00+00:00,220.9764,18.8,11.86,47.84626,-54.09684
2022-07-30 05:19:00+00:00,208.5364,18.8,11.86,47.84626,-54.09684
2022-07-30 05:29:00+00:00,200.6165,18.8,11.86,47.84626,-54.09684
2022-07-30 05:39:00+00:00,201.6215,18.8,11.86,47.84626,-54.09684
2022-07-30 05:49:00+00:00,200.4714,18.8,11.86,47.84626,-54.09684
2022-07-30 05:59:00+00:00,197.7081,18.8,11.86,47.84626,-54.09684
2022-07-30 06:09:00+00:00,198.2881,18.8,11.86,47.84626,-54.09684
2022-07-30 06:19:01+00:00,196.6348,18.8,11.86,47.84626,-54.09684
2022-07-30 06:29:01+00:00,192.8315,18.8,11.86,47.84626,-54.09684
2022-07-30 06:39:01+00:00,189.4964,18.8,11.86,47.84626,-54.09684
2022-07-30 06:49:01+00:00,190.7348,18.8,11.86,47.84626,-54.09684
2022-07-30 06:59:01+00:00,194.9115,18.79,11.86,47.84626,-54.09684
2022-07-30 07:09:01+00:00,191.5498,18.76,11.86,47.84626,-54.09684
2022-07-30 07:19:00+00:00,189.0931,18.72,11.86,47.84626,-54.09684
2022-07-30 07:29:00+00:00,198.4381,18.7,11.86,47.84626,-54.09684
2022-07-30 07:39:00+00:00,202.4464,18.7,11.86,47.84626,-54.09684
2022-07-30 07:49:00+00:00,197.4098,18.7,11.86,47.84626,-54.09684
2022-07-30 07:59:00+00:00,200.2831,18.7,11.86,47.84626,-54.09684
2022-07-30 08:09:00+00:00,206.5798,18.7,11.86,47.84626,-54.09684
2022-07-30 08:19:00+00:00,207.5314,18.7,11.77,47.84626,-54.09684
2022-07-30 08:29:00+00:00,209.2047,18.69,11.77,47.84626,-54.09684
2022-07-30 08:39:00+00:00,216.7314,18.64,11.77,47.84626,-54.09684
2022-07-30 08:49:00+00:00,224.1164,18.62,11.77,47.84626,-54.09684
2022-07-30 08:59:00+00:00,223.9415,18.67,11.77,47.84626,-54.09684
2022-07-30 09:09:00+00:00,225.9831,18.7,11.77,47.84626,-54.09684
2022-07-30 09:19:01+00:00,237.4731,18.7,11.77,47.84626,-54.09684
2022-07-30 09:29:01+00:00,244.8147,18.73,11.77,47.84626,-54.09684
2022-07-30 09:39:01+00:00,244.2381,18.79,11.77,47.84626,-54.09684
2022-07-30 09:49:01+00:00,249.7447,18.8,11.77,47.84626,-54.09684
2022-07-30 09:59:01+00:00,262.6597,18.79,11.77,47.84626,-54.09684
2022-07-30 10:09:01+00:00,266.2164,18.79,11.77,47.84626,-54.09684
2022-07-30 10:19:00+00:00,266.1814,18.8,11.77,47.84626,-54.09684
2022-07-30 10:29:00+00:00,273.6631,18.8,11.77,47.84626,-54.09684
2022-07-30 10:39:00+00:00,282.5897,18.8,11.77,47.84626,-54.09684
2022-07-30 10:49:00+00:00,286.6914,18.8,11.77,47.84626,-54.09684
2022-07-30 10:59:00+00:00,290.7847,18.8,11.77,47.84626,-54.09684
2022-07-30 11:09:00+00:00,298.7964,18.8,11.77,47.84626,-54.09684
2022-07-30 11:19:00+00:00,304.288,18.8,11.77,47.84626,-54.09684
2022-07-30 11:29:00+00:00,307.2631,18.8,11.77,47.84626,-54.09684
2022-07-30 11:39:00+00:00,312.0147,18.8,11.77,47.84626,-54.09684
2022-07-30 11:49:00+00:00,319.243,18.8,11.77,47.84626,-54.09684
2022-07-30 11:59:00+00:00,322.7147,18.8,11.77,47.84626,-54.09684
2022-07-30 12:09:00+00:00,325.8813,18.8,11.77,47.84626,-54.09684
2022-07-30 12:19:01+00:00,326.2963,18.8,11.77,47.84626,-54.09684
2022-07-30 12:29:01+00:00,330.048,18.8,11.77,47.84626,-54.09684
2022-07-30 12:39:01+00:00,330.6946,18.8,11.77,47.84626,-54.09684
2022-07-30 12:49:01+00:00,331.6664,18.8,11.77,47.84626,-54.09684
2022-07-30 12:59:01+00:00,328.403,18.8,11.77,47.84626,-54.09684
2022-07-30 13:09:01+00:00,327.2446,18.8,11.77,47.84626,-54.09684
2022-07-30 13:19:00+00:00,327.5246,18.8,11.77,47.84626,-54.09684
2022-07-30 13:29:00+00:00,326.2531,18.8,11.77,47.84626,-54.09684
2022-07-30 13:39:00+00:00,320.3163,18.8,11.77,47.84626,-54.09684
2022-07-30 13:49:00+00:00,315.8914,18.8,11.77,47.84626,-54.09684
2022-07-30 13:59:00+00:00,314.5314,18.8,11.77,47.84626,-54.09684
2022-07-30 14:09:00+00:00,314.4547,18.8,11.77,47.84626,-54.09684
2022-07-30 14:19:00+00:00,313.5947,18.8,11.77,47.84626,-54.09684
2022-07-30 14:29:00+00:00,308.638,18.8,11.77,47.84626,-54.09684
2022-07-30 14:39:00+00:00,300.548,18.84,11.77,47.84626,-54.09684
2022-07-30 14:49:00+00:00,298.8197,18.87,11.77,47.84626,-54.09684
2022-07-30 14:59:00+00:00,296.898,18.86,11.77,47.84626,-54.09684
2022-07-30 15:09:00+00:00,286.9163,18.87,11.77,47.84626,-54.09684
2022-07-30 15:19:00+00:00,278.9814,18.89,11.77,47.84626,-54.09684
2022-07-30 15:29:00+00:00,278.2031,18.87,11.77,47.84626,-54.09684
2022-07-30 15:39:00+00:00,268.8813,18.88,11.77,47.84626,-54.09684
2022-07-30 15:49:00+00:00,259.5097,18.89,11.77,47.84626,-54.09684
2022-07-30 15:59:00+00:00,260.1348,18.89,11.77,47.84626,-54.09684
2022-07-30 16:09:00+00:00,255.4264,18.9,11.77,47.84626,-54.09684
2022-07-30 16:19:01+00:00,241.7481,18.9,11.77,47.84626,-54.09684
2022-07-30 16:29:01+00:00,238.2681,18.9,11.77,47.84626,-54.09684
2022-07-30 16:39:01+00:00,237.2797,18.9,11.77,47.84626,-54.09684
2022-07-30 16:49:01+00:00,224.5914,18.9,11.77,47.84626,-54.09684
2022-07-30 16:59:01+00:00,213.2714,18.9,11.77,47.84626,-54.09684
2022-07-30 17:09:01+00:00,214.3864,18.9,11.77,47.84626,-54.09684
2022-07-30 18:19:01+00:00,186.3714,18.9,11.77,47.84626,-54.09684
2022-07-30 18:29:01+00:00,188.9298,18.9,11.77,47.84626,-54.09684
2022-07-30 18:39:01+00:00,184.2331,18.9,11.77,47.84626,-54.09684
2022-07-30 18:49:01+00:00,182.0965,18.9,11.77,47.84626,-54.09684
2022-07-30 18:59:01+00:00,188.5298,18.9,11.77,47.84626,-54.09684
2022-07-30 19:09:01+00:00,187.9297,18.9,11.77,47.84626,-54.09684
2022-07-30 19:19:01+00:00,185.7882,18.9,11.77,47.84626,-54.09684
2022-07-30 19:29:01+00:00,193.4415,18.9,11.77,47.84626,-54.09684
2022-07-30 19:39:01+00:00,199.0348,18.9,11.77,47.84626,-54.09684
2022-07-30 19:49:01+00:00,201.9548,18.9,11.77,47.84626,-54.09684
2022-07-30 19:59:01+00:00,209.0981,18.9,11.77,47.84626,-54.09684
2022-07-30 20:09:01+00:00,213.4381,18.9,11.77,47.84626,-54.09684
2022-07-30 20:19:00+00:00,214.4164,18.9,11.77,47.84626,-54.09684
2022-07-30 20:29:00+00:00,219.2231,18.9,11.77,47.84626,-54.09684
2022-07-30 20:39:00+00:00,227.6031,18.9,11.77,47.84626,-54.09684
2022-07-30 20:49:00+00:00,232.5248,18.9,11.77,47.84626,-54.09684
2022-07-30 20:59:00+00:00,236.5981,18.93,11.77,47.84626,-54.09684
2022-07-30 21:09:00+00:00,240.2198,18.96,11.77,47.84626,-54.09684
2022-07-30 21:19:00+00:00,243.4964,18.98,11.77,47.84626,-54.09684
2022-07-30 21:29:00+00:00,246.3647,18.99,11.77,47.84626,-54.09684
2022-07-30 21:39:00+00:00,247.963,18.99,11.77,47.84626,-54.09684
2022-07-30 21:49:00+00:00,255.0164,18.99,11.77,47.84626,-54.09684
2022-07-30 21:59:00+00:00,260.8081,18.99,11.77,47.84626,-54.09684
2022-07-30 22:09:00+00:00,264.493,18.99,11.77,47.84626,-54.09684
2022-07-30 23:19:01+00:00,309.7496,19.0,11.77,47.84626,-54.09684
2022-07-30 23:29:01+00:00,313.8397,19.0,11.77,47.84626,-54.09684
2022-07-30 23:39:01+00:00,325.0146,19.0,11.77,47.84626,-54.09684
2022-07-30 23:49:01+00:00,333.283,19.0,11.77,47.84626,-54.09684
2022-07-30 23:59:01+00:00,337.14300000000014,19.0,11.77,47.84626,-54.09684
